[[{"header":{"parameterUnit":"m.s-1","parameterCategory":1,"la1":30.2991,"la2":30.254,"lo1":-89.0895,"lo2":-89.0444,"dy":0.0017,"dx":0.0017,"nx":28,"ny":28,"refTime":"2025-11-13T03:00:00:Z","depth":0,"parameterNumber":2,"parameterNumberName":"U-component_of_WINDS"},"data":[0,0,0,0,0,0,0,0,0,0,0,0,0,0,0,0,0,0,0,0,0,0,0,0,0,0,0,0,0,0,0,0,0,0,0,0,0,0,0,0,0,0,0,0,0,0,0,0,0,0,0,0,0,0,0,0,0,0,2.4169,2.417,0,2.4272,2.4274,2.4275,2.425,2.4248,2.4246,2.4244,2.435,2.4355,2.4359,0,0,0,0,0,0,0,0,0,0,0,0,0,2.395,2.3954,2.4169,2.417,2.4172,2.4272,2.4274,2.4275,2.4251,2.4248,2.4246,2.4243,2.4349,2.4354,2.436,0,0,0,0,0,0,0,0,0,0,0,0,0,2.4048,2.3955,2.4169,2.4172,2.4173,2.4272,2.4274,2.4275,2.4251,2.4248,2.4245,2.4242,2.4347,2.4354,2.4361,2.4464,0,0,2.4382,2.4385,0,0,0,0,0,0,0,0,2.4043,2.4056,2.417,2.4172,2.4173,2.4245,2.4235,2.4339,2.4252,2.4221,2.4244,2.4241,2.4318,2.4327,2.4353,2.4468,2.4473,2.4383,2.4387,2.439,2.4392,0,0,0,0,0,0,0,2.4036,2.4052,2.421,2.4172,2.4174,2.4167,2.4178,2.4255,2.4285,2.4224,2.4222,2.4235,2.4318,2.4346,2.4355,2.4475,2.4382,2.4389,2.4393,2.4396,2.4677,2.468,0,0,0,0,0,0,2.4028,2.4046,2.4207,2.4213,2.4099,2.4174,2.4186,2.4225,2.4284,2.429,2.4237,2.4233,2.4336,2.4347,2.4359,2.4481,2.439,2.4396,2.44,2.4674,2.4678,2.4682,0,0,0,0,0,0,2.4023,2.4042,2.4202,2.4129,2.4149,2.4181,2.4225,2.4229,2.4257,2.4294,2.43,2.426,2.4334,2.4349,2.4437,2.4484,2.44,2.4406,2.467,2.4675,2.468,2.4727,0,0,0,0,0,0,2.4017,2.4041,2.408,2.413,2.4153,2.4279,2.4228,2.4233,2.4269,2.4265,2.4317,2.4323,2.4333,2.4427,2.4444,2.4492,2.4411,2.4666,2.4672,2.4678,2.4722,2.4733,2.4743,0,0,0,0,0,2.4009,2.409,2.4082,2.4102,2.4203,2.4282,2.4295,2.4304,2.4273,2.4312,2.4336,2.4322,2.4477,2.4436,2.4455,2.4507,2.4663,2.4671,2.4678,2.4717,2.4731,2.4743,0,0,0,0,0,0,2.4045,2.4097,2.4089,2.4188,2.4231,2.4278,2.4328,2.4319,2.4372,2.4366,2.4375,2.4387,2.4476,2.4501,2.4454,2.4608,2.4565,2.4577,2.4588,2.4602,2.4613,2.4604,2.4417,0,0,0,0,0,2.4065,2.4124,2.4166,2.425,2.4272,2.4297,2.4331,2.4335,2.4379,2.4397,2.4427,2.4471,2.4529,2.4568,2.4624,2.4726,2.4736,2.4771,2.4781,2.479,2.4799,2.4853,2.4868,2.4706,2.4706,2.4706,0,0,2.4105,2.4141,2.4178,2.4258,2.4292,2.4352,2.4312,2.4379,2.4423,2.4407,2.4491,2.4515,2.4565,2.4659,2.4703,2.4682,2.4846,2.4799,2.4806,2.4811,2.4862,2.4877,2.4891,2.4711,2.471,2.4709,0,0,2.421,2.4244,2.4317,2.4351,2.4402,2.4417,2.4435,2.4483,2.4498,2.4583,2.4571,2.4625,2.4726,2.4761,2.4792,2.491,2.4897,2.4928,2.4983,2.5036,2.5048,2.506,2.5099,2.5114,2.4938,2.4938,2.4938,0,2.4254,2.4346,2.4355,2.4422,2.4457,2.4445,2.4517,2.455,2.4617,2.4641,2.4618,2.4743,2.4776,2.4877,2.4906,2.4933,2.4951,2.4921,2.5046,2.5057,2.5068,2.5106,2.5121,2.4941,2.4941,2.494,2.494,0,2.4396,2.446,2.4512,2.4576,2.4617,2.4687,2.4706,2.4746,2.4746,2.4764,2.485,2.4889,2.4952,2.4977,2.4978,2.5079,2.5064,2.5044,2.5,2.5086,2.5122,2.5137,2.4945,2.4944,2.4943,2.4943,0,0,2.4525,2.4593,2.4612,2.464,2.4695,2.4744,2.4813,2.4874,2.4908,2.4955,2.5011,2.5097,2.5078,2.5113,2.5118,2.5164,2.5252,2.5138,2.5139,2.5155,2.5363,2.5376,2.5393,2.5245,2.5248,2.525,2.5358,0,2.4632,2.4753,2.4763,2.4872,2.493,2.4919,2.4979,2.5019,2.5038,2.509,2.5111,2.517,2.5142,2.5163,2.5208,2.5232,2.5293,2.5224,2.5297,2.5299,2.5282,2.5412,2.5426,2.5526,2.5372,2.5374,2.5376,0,2.4774,2.4824,2.4938,2.4983,2.5008,2.5062,2.5117,2.5168,2.5213,2.5223,2.5262,2.5261,2.5331,2.5287,2.5383,2.5336,2.5366,2.5382,2.5386,2.5391,2.5341,2.5418,2.5558,2.5572,2.5399,2.5397,2.5395,0,2.4852,2.4949,2.5029,2.5054,2.511,2.5147,2.5172,2.5215,2.525,2.53,2.5322,2.538,2.541,2.5455,2.5468,2.5435,2.5563,2.5521,2.5572,2.5572,2.5597,2.5595,2.5742,2.5622,2.5621,2.5621,2.5621,0,2.497,2.5039,2.5065,2.5114,2.5191,2.5202,2.5278,2.5301,2.5339,2.5392,2.5388,2.5437,2.5453,2.5506,2.5518,2.5594,2.5609,2.5618,2.562,2.5617,2.5615,2.5635,2.5627,2.5625,2.5624,2.5623,2.5623,0,2.507,2.509,2.5176,2.5222,2.5236,2.529,2.5329,2.5376,2.5395,2.5461,2.5478,2.5506,2.5568,2.5586,2.5661,2.5668,2.5757,2.5754,2.5741,2.5741,2.579,2.5784,2.5953,2.5974,2.5842,2.5843,2.5844,0,2.5142,2.5195,2.5247,2.5281,2.5308,2.5365,2.5401,2.5414,2.5452,2.5507,2.5547,2.5607,2.5656,2.5755,2.5782,2.5838,2.5835,2.589,2.5843,2.5838,2.5833,2.5828,2.5833,2.5898,2.5899,2.5901,2.5902,0,2.5267,2.5274,2.5326,2.5382,2.5425,2.547,2.5512,2.5541,2.5561,2.5603,2.5666,2.5704,2.5779,2.5839,2.5896,2.5922,2.5914,2.5916,2.5931,2.5927,2.5917,2.592,2.5762,2.5912,2.5911,2.591,2.591,2.5909,2.5353,2.5399,2.5442,2.55,2.5534,2.5574,2.562,2.5644,2.5696,2.5757,2.5763,2.583,2.5873,2.5949,2.5978,2.603,2.6014,2.6035,2.604,2.6045,2.6047,2.591,2.6041,2.6041,2.604,2.604,2.604,0,2.5475,2.5503,2.5556,2.5616,2.5661,2.5651,2.5698,2.5736,2.5795,2.5836,2.5884,2.5956,2.6013,2.6045,2.6103,2.6139,2.6137,2.6153,2.6149,2.6155,2.606,2.604,2.6153,2.6153,2.6153,2.6153,2.6153,2.6153,2.5544,2.562,2.5633,2.5726,2.5753,2.5818,2.5845,2.5882,2.5914,2.5993,2.6041,2.6062,2.6099,2.6159,2.6212,2.6219,2.624,2.6258,2.6263,2.6173,2.6162,2.6151,2.6132,2.6263,2.6263,2.6354,2.6354,2.6355]},{"header":{"parameterUnit":"m.s-1","parameterCategory":1,"la1":30.2991,"la2":30.254,"lo1":-89.0895,"lo2":-89.0444,"dy":0.0017,"dx":0.0017,"nx":28,"ny":28,"refTime":"2025-11-13T03:00:00:Z","depth":0,"parameterNumber":3,"parameterNumberName":"V-component_of_WINDS"},"data":[0,0,0,0,0,0,0,0,0,0,0,0,0,0,0,0,0,0,0,0,0,0,0,0,0,0,0,0,0,0,0,0,0,0,0,0,0,0,0,0,0,0,0,0,0,0,0,0,0,0,0,0,0,0,0,0,0,0,3.4149,3.415,0,3.4219,3.4219,3.422,3.4176,3.4174,3.4172,3.417,3.4236,3.4239,3.4243,0,0,0,0,0,0,0,0,0,0,0,0,0,3.3973,3.3977,3.4149,3.415,3.4151,3.4219,3.4219,3.422,3.4176,3.4174,3.4171,3.4169,3.4235,3.4239,3.4243,0,0,0,0,0,0,0,0,0,0,0,0,0,3.4047,3.3978,3.4149,3.4137,3.4137,3.4218,3.422,3.4221,3.4177,3.4174,3.4171,3.4168,3.4233,3.4238,3.4244,3.4339,0,0,3.4261,3.4263,0,0,0,0,0,0,0,0,3.4043,3.4053,3.4138,3.4138,3.4138,3.4186,3.4181,3.426,3.4178,3.4162,3.417,3.4166,3.4221,3.4227,3.4247,3.4342,3.4345,3.4261,3.4264,3.4267,3.4268,0,0,0,0,0,0,0,3.4038,3.405,3.4177,3.4139,3.4139,3.4127,3.4134,3.4196,3.4208,3.4163,3.416,3.4169,3.4221,3.4242,3.4248,3.4346,3.4261,3.4266,3.4269,3.4271,3.4521,3.4525,0,0,0,0,0,0,3.4034,3.4046,3.4174,3.4179,3.4082,3.4132,3.414,3.4173,3.4207,3.4209,3.4171,3.4166,3.4234,3.4242,3.425,3.4363,3.4267,3.4272,3.4275,3.4518,3.4522,3.4526,0,0,0,0,0,0,3.4031,3.4046,3.4172,3.4112,3.4127,3.4139,3.4176,3.4176,3.4198,3.4213,3.4215,3.4191,3.4232,3.4243,3.4318,3.4365,3.4274,3.4279,3.4514,3.4519,3.4524,3.459,0,0,0,0,0,0,3.4026,3.4045,3.4083,3.4113,3.413,3.4239,3.4179,3.418,3.4208,3.4202,3.4233,3.4235,3.423,3.431,3.4323,3.4371,3.4284,3.451,3.4517,3.4522,3.4584,3.4597,3.4608,0,0,0,0,0,3.402,3.4098,3.4085,3.4101,3.4178,3.4242,3.4252,3.4247,3.4212,3.4249,3.4259,3.4234,3.4358,3.4318,3.4332,3.4383,3.4507,3.4515,3.4522,3.4578,3.4594,3.4608,0,0,0,0,0,0,3.4071,3.4101,3.4087,3.4178,3.4208,3.4235,3.4281,3.4264,3.4303,3.4296,3.4286,3.4294,3.4372,3.4385,3.4339,3.4476,3.4427,3.4437,3.4464,3.448,3.4492,3.4486,3.4288,0,0,0,0,0,3.4093,3.4145,3.4168,3.4246,3.4262,3.4269,3.4297,3.4291,3.432,3.4332,3.4348,3.4376,3.4422,3.4452,3.4494,3.4586,3.4591,3.4628,3.464,3.465,3.4658,3.4706,3.4723,3.4551,3.4551,3.455,0,0,3.4139,3.4162,3.4195,3.4256,3.4279,3.4331,3.428,3.4337,3.4375,3.434,3.4412,3.4425,3.4456,3.4539,3.4577,3.4552,3.4707,3.4659,3.4667,3.4671,3.4716,3.4732,3.4747,3.4556,3.4555,3.4554,0,0,3.4248,3.4272,3.4339,3.4363,3.4398,3.4403,3.4419,3.4448,3.4455,3.4528,3.4503,3.4547,3.4626,3.4648,3.467,3.4789,3.4766,3.4803,3.4865,3.4912,3.4926,3.4938,3.4979,3.4994,3.4812,3.4812,3.4812,0,3.43,3.4379,3.4375,3.4434,3.4461,3.4434,3.4501,3.4524,3.457,3.4589,3.4561,3.4659,3.4678,3.4766,3.4795,3.4814,3.4831,3.4799,3.4925,3.4937,3.4948,3.4986,3.5002,3.4816,3.4816,3.4815,3.4815,0,3.444,3.4495,3.4545,3.4592,3.4625,3.4688,3.4691,3.4724,3.4715,3.4722,3.4795,3.4817,3.4863,3.4884,3.4875,3.497,3.4954,3.4926,3.4876,3.4968,3.5004,3.5019,3.4822,3.4821,3.4819,3.4818,0,0,3.4583,3.4628,3.4646,3.4667,3.4704,3.4746,3.4806,3.4853,3.4881,3.4914,3.4964,3.5031,3.5005,3.503,3.5024,3.5065,3.5156,3.5032,3.5032,3.5053,3.526,3.528,3.5298,3.5142,3.5145,3.5147,3.5257,0,3.4694,3.4802,3.4799,3.4898,3.4948,3.4924,3.4976,3.5004,3.5012,3.5054,3.5062,3.5109,3.5072,3.5087,3.5127,3.5137,3.5197,3.5129,3.5186,3.5188,3.5177,3.5317,3.5338,3.5441,3.5272,3.5274,3.5276,0,3.4837,3.4877,3.4982,3.5011,3.5032,3.5079,3.5122,3.5163,3.5193,3.5195,3.5224,3.5211,3.527,3.522,3.5301,3.5254,3.5277,3.5285,3.5289,3.5293,3.5236,3.5323,3.5474,3.5489,3.5298,3.5296,3.5295,0,3.4929,3.5009,3.5081,3.51,3.5137,3.517,3.5187,3.5214,3.5242,3.5279,3.5296,3.5339,3.5362,3.5394,3.5392,3.5356,3.5474,3.5423,3.5476,3.5476,3.55,3.5499,3.5656,3.5518,3.5518,3.5517,3.5517,0,3.5052,3.5117,3.5123,3.5168,3.5239,3.5235,3.5305,3.5317,3.5342,3.5387,3.5368,3.5411,3.5406,3.5448,3.5447,3.5513,3.5524,3.5526,3.5525,3.5527,3.5527,3.5541,3.5534,3.5522,3.5521,3.552,3.5519,0,3.5166,3.5173,3.5251,3.528,3.5288,3.5339,3.5363,3.5404,3.5411,3.5468,3.5481,3.5491,3.554,3.5541,3.5597,3.5596,3.5676,3.5668,3.5667,3.5665,3.5716,3.5711,3.5887,3.591,3.5758,3.576,3.5761,0,3.5243,3.5293,3.5327,3.5357,3.5376,3.5424,3.5453,3.5451,3.5482,3.552,3.5556,3.5603,3.5641,3.572,3.573,3.5773,3.5764,3.5823,3.577,3.577,3.5763,3.576,3.5764,3.5832,3.5834,3.5835,3.5837,0,3.5379,3.5381,3.5424,3.547,3.5505,3.554,3.5572,3.5597,3.5598,3.5634,3.5684,3.5714,3.5771,3.5817,3.5858,3.5873,3.5855,3.5854,3.5868,3.587,3.5867,3.5868,3.5693,3.5849,3.5848,3.5847,3.5846,3.5846,3.5477,3.5519,3.555,3.5599,3.5624,3.5654,3.5694,3.5707,3.575,3.5797,3.5793,3.5849,3.5876,3.593,3.5948,3.599,3.5969,3.599,3.5995,3.6,3.6005,3.5862,3.5997,3.5997,3.5997,3.5996,3.5996,0,3.561,3.5629,3.5675,3.5721,3.5759,3.5741,3.5776,3.5808,3.5858,3.5887,3.5925,3.5982,3.6027,3.6042,3.6085,3.6116,3.6109,3.6127,3.6124,3.6128,3.6022,3.6004,3.6133,3.6133,3.6133,3.6133,3.6132,3.6132,3.5684,3.5755,3.576,3.5842,3.586,3.5916,3.5937,3.5965,3.5987,3.6053,3.6091,3.6101,3.6123,3.6168,3.6208,3.6211,3.6227,3.6249,3.6249,3.6149,3.6135,3.6122,3.6106,3.6253,3.6253,3.6351,3.6352,3.6353]}]]